{"data":{"norad_id":64050,"intl_designator":"2025-103C","name":"TIANYI C","alt_names":[],"object_type":"PAYLOAD","status":"ACTIVE","operator":null,"country":"PRC","launch_date":"2025-05-17","launch_site_code":"JSC","launch_vehicle":null,"mission":null,"orbit_class":"UNKNOWN","rcs_meters":null,"size_class":null,"mass_kg":null,"dimensions":null,"purposes":[],"wikipedia_slug":null,"has_3d_model":false,"image_url":null,"decayed_at":null,"tle_current":{"epoch":"2026-09-21T22:28:17.848416Z","epoch_age_seconds":71401,"freshness":"FRESH","line1":"1 64050U 25103C   26264.93631769  .00003207  00000+0  15070-3 0  9997","line2":"2 64050  97.3665 334.3860 0002760 152.2186 207.9198 15.20309060 74766","mean_motion":15.2030906,"eccentricity":0.000276,"inclination_deg":97.3665,"raan_deg":334.386,"arg_perigee_deg":152.2186,"mean_anomaly_deg":207.9198,"bstar":0.0001507,"rev_number":7476,"period_min":94.717583278758,"perigee_km":503.00791022633,"apogee_km":506.80735086239,"semimajor_km":6883.0446305444,"source":"CELESTRAK","updated_at":"2026-09-22T09:00:29.522921Z"}}}